Regional Weather Roundup
Issued by NWS Charleston, SC

Home | Current Version | Previous Version | Text Only | Print | Product List | Glossary On
Versions: 1 2 3 4 5 6 7 8 9 10 11 12 13 14 15 16 17 18 19 20 21 22 23 24 25 26 27 28 29 30 31 32 33 34 35 36 37 38 39 40 41 42 43 44 45 46 47 48 49 50
000
ASUS42 KCHS 190425
RWRCHS

REGIONAL WEATHER ROUNDUP
NATIONAL WEATHER SERVICE CHARLESTON SC
1200 AM EDT FRI SEP 19 2014

NOTE: "FAIR" INDICATES FEW OR NO CLOUDS BELOW 12,000 FEET WITH NO
SIGNIFICANT WEATHER AND/OR OBSTRUCTIONS TO VISIBILITY.

NOT ALL STATIONS ARE QUALITY CONTROLLED BY THE NATIONAL
WEATHER SERVICE. USE DATA WITH CAUTION...ESPECIALLY
DEWPOINT OBSERVATIONS.

SCZ027-030-031-034>040-042>050-190500-
...SOUTH CAROLINA...

CITY           SKY/WX    TMP DP  RH WIND       PRES   REMARKS
N CHARLESTON   MOCLDY    74  70  87 NE5       30.00R
WATERFRONT PRK   N/A     81 N/A N/A E13         N/A
FORT JOHNSON   NOT AVBL
MOUNT PLEASANT FAIR      72  72 100 CALM      29.99F FOG
JOHNS ISLAND   PTCLDY    73  73 100 CALM      29.99S
PINOPOLIS        N/A     75  72  88 E7        29.94R
MONCKS CORNER    N/A     72  72 100 CALM      30.00S
SUMMERVILLE    FAIR      70  70 100 CALM      30.01R
BEAUFORT MCAS  MOCLDY    73  71  93 NW3       29.99R
BEAUFORT ARPT  FAIR      73  73 100 CALM      29.98S
HILTON HEAD IS MOCLDY    72  72 100 CALM      29.99S
GEORGETOWN     NOT AVBL
WALTERBORO     MOCLDY    70 N/A N/A CALM      30.01S
ORANGEBURG     PTCLDY    71  67  87 E3        30.01S
BARNWELL       MOCLDY    70  70 100 CALM      30.01S
AIKEN          FAIR      68  68 100 CALM      30.04F
MANNING        FAIR      70 N/A N/A CALM      30.02R
KINGSTREE      NOT AVBL
COLUMBIA       PTCLDY    71  67  87 CALM      30.00S
SUMTER         PTCLDY    72  66  83 E2        30.01R
FLORENCE       CLEAR     70  65  84 E6        30.02S
MYRTLE BEACH   PTCLDY    79  64  61 E14       30.01F
N MYRTLE BEACH PTCLDY    73  65  75 NE6       30.02R

$$

GAZ063-065-086>088-099>101-113>116-118-119-134-136>141-150-190500-
...GEORGIA...

CITY           SKY/WX    TMP DP  RH WIND       PRES   REMARKS
SAVANNAH ARPT  MOCLDY    74  69  85 CALM      29.98S
HUNTER AAF     MOCLDY    75  72  90 CALM      29.96R
FORT STEWART   MOCLDY    72  70  94 CALM      29.97R
STATESBORO     NOT AVBL
SYLVANIA       CLOUDY    76  73  88 CALM      30.01R
CLAXTON        FAIR     N/A N/A N/A CALM      29.99R
THOMSON        CLEAR     70  70 100 CALM      30.05S
AUGUSTA-BUSH   FOG       66  66 100 CALM      30.00R VSB 3/4
AUGUSTA-DANIEL PTCLDY    73  67  81 SE3       30.01S
SWAINSBORO     FAIR      72  72 100 E3        30.00S
VIDALIA        CLEAR     73  72  94 CALM      29.99S
ALMA           CLOUDY    74  71  91 CALM      29.97S
WAYCROSS       MOCLDY    77  76  95 CALM      29.97S
JESUP          FAIR      77  75  94 CALM      29.97S
BRUNSWICK      PTCLDY    73  72  94 CALM      29.97S
SAINT SIMONS   PTCLDY    80  71  74 SE6       29.96S

$$

SCZ027-028-034-036>038-045-046-048>050-GAZ119-141-190500-
...LAKE AND SUPPLEMENTAL COASTAL OBSERVATIONS...

STATION/POSITION TIME  TEMP    WIND        PRES    WAVE   SWELL
                       AIR SEA DIR/SP/G            HT/PER HT/PER/DIR
                 (UTC) (F)     (DEG/KT/KT) (MB)    (FT/S) (FT/S/D)
UPR LAKE MARION  NOT AVBL
WINYAH BAY       0400   78     100/ 11     1015.0S
LAKE MURRAY      0300   72      CALM  /  2 1015.6F
ACE BASIN NERRS  0400   72        CALM     1015.0S
FORT PULASKI     0400   81      80/  6/  8 1015.1F
SAPELO ISLAND    0400   76     110/  2     1015.0S

$$

ANZ835-935-AMZ111-154-330-350-352-354-374-450-454-472-190500-
...C-MAN AND BUOY OBSERVATIONS...

STATION/POSITION TIME  TEMP    WIND        PRES    WAVE   SWELL
                       AIR SEA DIR/SP/G            HT/PER HT/PER/DIR
                 (UTC) (F)     (DEG/KT/KT) (MB)    (FT/S) (FT/S/D)
FOLLY BEACH CMAN 0400   80      80/ 11/ 13 1015.8R
BUOY 41004       0400   81 83   90/  8/ 10 1015.0R   3/10   3/10
BUOY 41008       0400   82 84  130/  8/ 10 1014.5F   2/12   2/110/12
5E ST. MARYS GA  0400      84                N/A     2/11   2/110/11
FRYING PAN BUOY  NOT AVBL
BUOY 41025       0400   73      10/ 12/ 16 1017.4R   4/ 8   3/ 50/ 8
CAPE LOOKOUT NC  0400   76      60/ 16/ 18 1017.1R
BUOY 41002       0346   79 82   80/ 12/ 14 1015.9R   3/10   3/ 90/10
BUOY 41010       0400   82 85   70/  8/ 10 1014.4R   3/11   3/ 40/11
BUOY 41012       NOT AVBL
ST AUGUSTINE FL  0400   78     230/  3/  3 1015.0S
CAPERS NEARSHORE 0300   78     150/ 10/ 12   N/A
FRIPP NEARSHORE  NOT AVBL


$$


USA.gov is the U.S. government's official web portal to all federal, state and local government web resources and services.